Location: Kuffner-Sternwarte
(48.2130°N, 16.2960°E)
Time: 16:45:47
(UTC+02:00)

ACS3 Solar Sail - Visible Passes

Search period start: 20 September 2024 00:00
Search period end: 30 September 2024 00:00
Orbit: 970 x 1036 km, 97.4° (Epoch: 19 September)

Date Brightness Start Highest point End Pass type
(mag) Time Alt. Az. Time Alt. Az. Time Alt. Az.
20 Sep 1.8 20:48:35 19° SSE 20:53:26 78° ENE 20:59:51 10° N visible
20 Sep 3.9 22:33:50 11° SW 22:38:06 21° W 22:42:48 10° NW visible
21 Sep 2.9 19:37:30 10° ESE 19:42:46 28° ENE 19:48:02 10° N visible
21 Sep 2.2 21:21:56 21° S 21:26:19 64° W 21:32:42 10° NNW visible
21 Sep 4.4 23:09:45 10° W 23:11:34 11° W 23:13:24 10° WNW visible
22 Sep 2.3 20:10:00 14° SE 20:15:15 45° ENE 20:21:16 10° N visible
22 Sep 3.1 21:55:14 19° SSW 21:59:19 38° W 22:05:14 10° NNW visible
23 Sep 1.8 20:43:14 20° SSE 20:47:51 75° ENE 20:54:15 10° N visible
23 Sep 3.9 22:28:28 13° SW 22:32:28 22° W 22:37:17 10° NW visible
24 Sep 2.9 19:31:55 10° ESE 19:37:05 27° ENE 19:42:13 10° N visible
24 Sep 2.1 21:16:26 23° S 21:20:34 67° W 21:26:57 10° NNW visible
24 Sep 4.4 23:03:28 10° WSW 23:05:45 12° W 23:08:03 10° WNW visible
25 Sep 2.3 20:04:21 14° SE 20:09:24 43° ENE 20:15:20 10° N visible
25 Sep 3.0 21:49:34 21° SSW 21:53:24 39° W 21:59:22 10° NNW visible
26 Sep 1.8 20:37:27 22° SSE 20:41:49 71° ENE 20:48:11 10° N visible
26 Sep 3.8 22:22:40 14° SW 22:26:22 23° W 22:31:20 10° NW visible
27 Sep 2.9 19:25:55 10° ESE 19:30:57 25° ENE 19:35:57 10° N visible
27 Sep 2.1 21:10:30 25° S 21:14:23 71° W 21:20:46 10° NNW visible
27 Sep 4.4 22:56:47 10° WSW 22:59:29 13° W 23:02:11 10° NW visible
28 Sep 2.4 19:58:16 15° SE 20:03:06 40° ENE 20:08:57 10° N visible
28 Sep 2.9 21:43:29 23° SSW 21:47:03 42° W 21:53:03 10° NNW visible
29 Sep 1.8 20:31:13 23° SSE 20:35:22 67° ENE 20:41:40 10° N visible
29 Sep 3.7 22:16:26 16° SW 22:19:50 25° W 22:24:55 10° NW visible
